GFSNGP_con_lsi_198.txt.gz
Lid_Strength_Index
15 15 14 13 13 14 16 15 17 16 15 14 13 14 13 12 12 12 12 12 12 12 11 11 11 11 10 11 11 11 11 11 11 10 10 10 10 9 9 9 9 9 9 9
17 15 14 15 14 14 14 14 14 13 14 13 14 14 13 12 12 12 12 12 11 11 11 11 11 11 11 11 11 12 12 12 11 11 12 12 12 11 11 11 10 10 10 10
18 16 15 17 15 14 14 12 12 14 13 14 14 13 13 13 13 12 11 11 11 11 11 12 12 11 12 12 12 12 13 12 13 13 13 13 13 13 13 12 11 11 11 11
18 17 21 15 14 13 13 14 14 15 14 14 13 12 12 11 11 11 11 11 11 11 12 12 12 13 13 13 13 14 14 14 14 14 14 14 14 14 13 13 13 12 12 11
19 25 19 17 16 14 13 15 14 14 13 13 11 12 12 11 11 11 11 11 11 12 12 13 13 13 14 14 14 15 15 15 14 14 15 15 15 15 14 14 14 13 12 12
24 24 24 18 15 13 13 17 14 13 13 13 12 15 14 12 11 12 12 12 13 13 14 14 14 14 15 15 15 16 16 15 15 15 15 16 16 15 15 14 14 13 13 13
29 29 24 17 15 13 19 16 13 13 12 12 14 13 12 12 13 13 13 14 14 15 15 15 15 15 16 16 17 16 16 16 16 16 17 16 16 16 15 15 15 15 14 13
28 28 25 16 14 16 14 13 12 13 12 12 12 12 13 13 14 14 15 15 14 16 16 16 16 16 17 18 17 18 18 18 19 18 17 17 17 17 16 16 16 16 15 15
19 19 15 14 13 12 12 13 13 12 12 12 13 14 14 14 15 15 16 15 15 17 17 17 17 18 19 19 19 19 20 21 20 19 19 18 19 18 18 17 17 16 16 15
16 15 14 13 12 12 12 12 12 12 13 13 14 14 14 14 15 16 16 17 18 19 19 19 19 19 20 20 20 22 22 22 21 21 21 20 19 19 19 18 17 17 16 15
17 14 14 13 12 12 12 13 13 13 13 14 14 14 15 16 17 17 18 19 20 21 21 21 21 21 22 21 22 23 23 23 22 22 23 22 21 20 19 17 16 16 15 13
17 13 13 13 13 12 13 14 14 14 15 16 15 16 17 18 19 20 21 21 22 22 23 23 24 24 24 24 24 25 25 24 24 24 24 23 22 22 18 16 14 12 11 11
15 14 13 13 15 16 16 17 17 17 17 18 18 19 20 21 21 22 23 24 24 25 25 26 26 27 27 26 27 27 27 26 25 25 25 24 23 22 22 19 14 13 12 11
15 14 15 16 15 15 16 17 20 21 21 21 21 24 24 25 25 26 27 28 28 28 29 30 30 29 28 28 29 28 28 27 26 25 25 24 23 22 21 20 20 18 14 12
19 20 16 17 19 21 22 22 23 23 24 25 27 27 26 27 29 29 30 30 31 32 32 33 32 30 29 30 29 29 28 27 26 25 24 23 22 21 20 19 18 18 16 14
27 25 24 20 21 24 26 27 25 26 28 29 29 30 30 31 32 32 34 34 34 31 32 35 33 30 30 31 31 29 28 26 25 25 24 22 21 20 19 19 19 18 17 17
23 24 26 26 26 27 25 27 26 27 28 29 29 31 34 35 35 35 34 36 36 34 34 36 32 31 32 33 33 29 26 26 25 25 23 22 21 20 20 19 19 18 18 16
24 23 22 21 22 24 28 30 30 30 30 30 32 34 35 35 34 34 34 37 38 37 36 34 34 32 34 33 32 28 27 27 26 25 23 22 21 20 20 19 19 19 18 17
28 24 27 23 22 24 26 28 29 30 33 33 34 33 36 37 37 37 39 40 38 38 33 35 27 31 33 31 25 27 28 27 25 24 23 22 21 21 21 20 20 19 19 19
30 31 29 29 32 29 30 33 32 32 35 36 38 38 37 36 39 40 42 38 36 33 36 33 33 33 33 32 27 28 28 27 26 25 24 23 22 22 21 21 21 20 20 19
25 27 27 26 28 33 32 31 31 32 33 35 33 34 35 38 40 42 38 36 31 36 34 32 34 32 32 30 26 32 30 28 26 25 24 24 23 22 22 21 21 20 20 19
28 27 27 28 29 29 32 32 32 33 33 36 38 39 39 34 37 36 34 32 33 33 34 35 33 31 28 24 30 29 29 29 27 26 25 24 23 22 22 21 21 20 19 19
28 28 28 29 28 28 34 32 32 32 32 32 31 32 32 32 33 34 33 33 35 32 32 31 29 24 21 28 28 28 27 27 26 25 24 23 22 22 21 21 20 19 19 18
27 28 28 30 32 33 29 30 32 32 31 32 32 32 33 33 32 34 33 32 30 31 32 31 26 20 22 27 28 27 26 27 26 25 23 22 21 21 21 20 20 19 18 18
25 26 28 29 29 27 30 30 31 30 33 32 31 32 33 32 30 32 32 31 29 30 30 27 22 22 28 29 28 27 26 25 24 23 23 22 22 22 21 21 21 20 19 18
26 24 24 25 25 26 26 27 27 27 28 29 29 30 33 33 32 32 34 32 33 31 31 29 30 29 29 28 27 27 26 24 24 24 23 23 23 23 22 22 22 21 20 19
28 27 27 28 28 25 25 25 26 26 27 27 27 30 32 34 34 33 33 33 32 31 30 31 30 28 28 28 27 26 26 25 24 24 24 25 25 25 24 24 23 23 22 21

GFSNGP_con_lsi_201.txt.gz
Lid_Strength_Index
16 16 15 14 14 14 15 16 18 17 15 15 14 14 14 14 14 14 14 14 14 14 13 13 14 14 13 14 13 13 14 14 14 14 14 14 14 13 12 12 12 12 12 11
17 15 14 14 14 14 14 14 14 15 15 14 14 13 14 14 13 13 13 13 13 13 13 13 13 14 14 14 14 13 14 14 14 14 14 14 14 14 14 14 13 13 13 12
20 15 15 17 15 15 14 14 13 15 13 14 15 14 14 14 13 13 13 13 13 13 13 13 14 14 15 15 14 14 14 14 14 14 15 14 14 14 15 15 14 14 14 13
18 17 20 16 16 13 13 14 14 14 14 14 14 14 13 13 13 12 13 13 13 13 13 14 15 15 15 15 15 15 15 15 15 15 16 15 15 15 15 15 15 15 14 14
18 22 18 17 16 14 14 16 15 15 15 13 13 13 14 12 12 12 12 13 14 14 14 15 16 16 16 16 16 16 16 16 16 16 16 16 17 16 16 16 16 15 15 15
24 22 25 18 16 14 13 16 14 14 13 13 13 16 14 12 12 13 13 13 15 15 15 16 16 16 16 17 16 17 17 17 17 17 17 18 17 17 16 16 16 16 15 15
22 21 20 17 15 14 18 16 14 13 13 13 15 14 13 13 14 14 14 14 16 17 17 17 17 17 17 17 18 17 18 18 18 18 18 18 18 18 18 18 17 17 17 16
27 25 21 16 15 16 15 14 14 14 14 14 13 14 14 14 15 15 16 17 16 18 18 17 17 17 18 19 19 19 19 20 20 20 19 19 19 19 19 19 19 18 18 17
19 19 15 14 13 13 14 14 14 13 13 12 13 14 14 15 16 16 16 16 17 18 18 18 18 18 20 20 20 21 22 22 22 21 20 20 21 20 21 20 20 19 19 19
17 16 15 14 13 13 13 13 13 13 13 13 14 14 14 15 16 16 17 18 19 20 20 20 20 20 21 21 22 24 24 23 22 22 22 22 21 21 21 21 21 20 19 19
18 15 15 14 13 13 13 13 13 14 14 14 14 14 15 16 17 18 18 20 20 21 21 22 22 23 24 23 24 25 24 23 23 23 24 24 23 23 21 20 19 19 19 18
18 14 13 13 13 12 13 13 13 14 15 15 15 16 17 18 19 20 21 22 23 23 24 25 26 26 26 26 26 27 26 25 25 25 25 25 24 24 20 18 17 16 15 16
15 15 14 14 15 16 15 16 17 16 17 18 19 19 20 21 21 22 24 24 25 26 27 28 28 29 29 29 30 30 29 28 27 26 26 26 25 25 25 22 17 16 15 14
16 14 15 16 15 15 16 17 19 21 21 20 21 24 24 24 26 27 27 28 29 31 31 33 33 32 30 31 32 32 31 29 28 27 26 26 26 25 24 24 24 23 18 15
18 21 17 17 19 21 22 22 23 22 23 25 27 25 26 27 28 28 31 32 33 34 35 35 36 32 33 34 33 33 31 29 28 27 26 26 25 24 24 23 23 23 22 18
26 26 24 19 20 22 24 25 23 25 28 28 29 30 29 30 33 35 35 36 32 33 35 37 36 33 34 36 35 34 33 29 28 28 28 27 25 25 24 23 23 22 21 20
22 24 26 26 23 25 23 23 22 23 26 27 26 30 33 35 36 36 36 38 38 37 36 38 34 34 35 36 37 33 31 30 29 30 30 27 26 25 24 23 23 22 22 20
26 23 22 20 21 24 28 29 28 27 27 28 31 33 35 35 32 35 37 40 37 36 36 34 34 34 36 37 36 32 33 32 32 31 28 27 25 24 24 24 23 23 22 21
28 25 23 24 21 22 24 26 27 29 31 31 32 32 33 35 36 37 40 40 39 36 33 36 29 33 35 33 28 34 34 34 31 31 31 27 25 25 24 24 23 23 22 21
29 31 29 30 28 25 26 31 28 30 33 32 35 35 33 34 37 38 40 36 33 31 35 35 36 36 35 35 30 35 36 35 32 29 28 27 26 25 24 24 23 22 22 21
24 29 27 26 27 32 27 28 28 29 31 32 31 30 30 34 37 37 36 34 31 34 35 32 36 33 35 33 32 36 36 33 32 30 28 27 27 26 25 24 23 22 21 21
29 27 27 28 28 27 32 31 30 30 31 32 34 35 34 33 34 34 33 31 33 32 35 36 35 34 32 29 35 36 33 33 32 31 31 29 26 25 24 23 23 22 21 21
26 27 26 27 26 27 30 31 30 29 29 30 31 31 30 29 30 32 31 32 35 35 34 35 33 28 26 34 35 36 33 32 31 30 28 27 26 25 24 23 22 21 21 21
26 25 24 26 29 31 29 30 30 30 30 32 31 30 30 32 32 32 34 34 32 33 34 33 30 22 26 34 34 32 32 31 29 29 27 26 25 24 24 23 22 22 22 22
26 28 29 28 27 25 28 29 31 34 33 33 31 31 30 31 29 32 31 30 30 32 34 31 24 25 33 34 33 31 31 30 29 28 27 26 26 25 25 24 24 23 23 23
28 24 23 24 24 27 27 29 28 29 29 29 29 29 29 31 30 29 30 31 34 33 35 33 33 33 32 32 31 31 29 28 28 27 27 26 26 26 26 25 25 25 25 24
28 27 27 28 27 26 26 27 26 27 26 26 26 28 28 29 30 31 31 32 34 35 34 35 33 32 32 31 31 30 29 29 27 27 27 27 26 26 26 26 26 26 25 25

GFSNGP_con_lsi_207.txt.gz
Lid_Strength_Index
16 16 16 15 14 14 15 15 17 17 17 16 15 15 15 15 15 15 15 15 16 16 17 17 17 17 17 17 17 17 17 17 17 16 15 16 16 16 15 15 15 15 15 15
18 15 14 15 14 13 13 14 14 15 16 14 14 15 15 14 14 15 15 15 15 16 17 17 17 18 17 17 17 16 17 16 16 17 16 16 16 16 16 16 16 15 15 15
21 16 16 20 15 13 13 13 12 16 14 13 15 14 14 14 14 15 15 15 16 16 17 17 17 17 18 17 17 17 17 17 18 17 17 17 17 17 17 17 16 16 15 15
22 18 23 15 16 13 12 12 12 13 14 13 13 13 14 13 14 14 15 15 16 17 17 18 17 17 17 17 17 17 18 18 18 18 18 18 17 17 17 17 16 16 16 16
19 21 18 16 16 15 14 14 13 13 14 14 14 14 15 13 13 14 14 16 16 16 17 18 18 17 16 17 18 18 19 19 19 19 19 18 18 18 17 17 17 17 16 16
24 21 23 16 16 14 13 17 13 13 13 14 13 15 15 14 14 16 16 17 17 17 17 17 18 17 18 19 19 20 20 20 19 19 19 18 18 19 18 18 18 17 17 17
27 25 20 16 16 15 18 16 14 13 13 13 14 14 14 15 16 16 17 17 17 17 18 18 18 18 19 19 20 20 20 20 20 19 19 19 19 19 19 19 19 19 19 18
24 23 21 17 16 15 14 14 14 14 14 14 15 14 15 15 16 17 17 18 18 18 18 19 19 19 20 21 21 21 21 21 21 20 20 20 20 20 20 20 21 21 20 19
19 18 15 15 14 13 14 14 14 14 14 14 15 15 15 16 16 16 17 18 18 19 20 20 20 20 21 21 21 22 23 23 22 22 21 21 21 22 22 22 22 22 21 20
18 17 16 15 14 14 14 14 14 14 14 14 15 15 15 16 17 17 18 19 20 20 21 22 22 21 22 22 23 26 25 23 22 23 24 23 23 22 23 23 23 21 21 21
19 16 16 15 15 14 14 14 14 14 14 14 14 15 15 16 17 18 19 20 21 21 22 23 23 24 25 24 25 25 24 24 24 24 25 24 24 24 23 21 20 21 21 21
19 15 15 15 14 13 14 14 14 15 15 15 15 15 16 18 18 19 21 22 23 24 24 25 26 26 27 29 28 29 26 26 26 26 26 26 26 25 22 20 19 18 17 18
16 16 15 15 17 16 15 15 17 17 17 16 17 17 18 20 21 22 23 23 24 25 26 28 29 31 33 33 33 33 31 29 28 27 27 27 27 27 27 24 20 19 18 17
18 15 17 17 15 15 15 17 19 21 21 20 20 23 23 23 25 25 25 27 28 29 31 32 33 33 33 36 36 36 34 30 29 29 29 29 28 28 27 27 27 25 21 19
18 22 19 19 20 21 22 21 22 21 23 24 26 24 24 25 25 26 29 31 31 34 35 35 35 34 36 37 35 36 32 31 31 31 30 30 29 28 27 27 27 27 26 23
27 27 25 23 21 23 23 24 21 23 26 28 27 27 27 27 29 31 34 34 29 30 33 35 35 34 37 38 37 37 36 33 32 33 33 32 31 30 29 29 28 28 27 26
23 23 27 26 25 26 22 21 19 20 24 25 24 27 29 32 35 36 35 37 37 36 36 35 32 36 38 38 37 36 37 36 34 37 36 34 33 32 30 30 29 28 27 25
26 26 22 21 21 22 25 26 26 24 23 24 27 29 30 30 26 30 33 38 39 38 36 34 34 37 38 39 38 37 37 38 38 38 36 35 34 32 31 30 29 29 27 25
28 25 26 24 20 20 22 23 24 26 27 26 28 28 28 30 32 35 36 38 38 36 31 34 29 33 37 37 34 35 37 37 37 38 37 35 34 33 32 31 30 28 27 26
29 31 31 28 29 24 24 28 26 27 29 28 30 31 31 33 35 35 38 33 31 31 34 34 36 36 37 37 32 37 37 37 38 37 37 36 35 33 32 30 29 28 27 26
25 28 28 28 28 29 28 26 26 26 29 30 28 28 29 33 34 35 40 35 30 32 34 34 35 35 36 34 33 35 38 39 40 37 37 35 35 33 32 30 29 28 27 26
30 28 28 29 29 28 32 32 29 28 29 31 34 32 32 34 35 36 34 30 34 32 34 36 36 35 34 30 32 32 37 38 38 38 36 36 35 33 30 29 28 27 26 26
26 28 28 29 27 27 33 34 32 28 28 29 30 30 29 27 30 31 29 29 31 31 33 35 33 29 27 30 32 35 36 34 33 33 33 34 33 31 29 29 28 27 27 26
27 28 27 28 29 30 27 29 32 31 31 29 27 27 28 30 32 32 33 31 29 27 29 30 28 23 26 33 33 32 32 32 32 33 33 31 30 29 29 29 28 27 27 27
26 26 26 26 25 23 26 27 29 32 31 30 28 28 28 30 27 29 29 29 26 28 29 28 24 24 31 32 32 32 31 32 31 32 32 31 30 30 29 29 28 28 27 27
25 23 23 23 24 24 25 26 26 27 27 27 28 31 31 30 30 29 29 28 28 28 29 30 30 30 30 30 31 30 30 29 29 29 29 29 29 30 29 29 28 28 27 26
28 27 27 26 28 27 26 26 25 25 26 26 27 28 29 29 29 28 28 29 28 29 29 29 29 29 30 30 29 29 29 29 28 28 30 30 29 30 29 28 28 27 26 26

GFSNGP_con_lsi_210.txt.gz
Lid_Strength_Index
13 12 11 12 13 13 14 13 15 14 14 13 11 10 11 11 12 13 14 14 15 15 16 16 16 16 16 17 17 16 16 17 17 17 17 16 16 16 15 15 15 14 14 14
15 13 12 13 12 12 12 12 13 13 14 11 10 10 11 12 12 13 14 14 15 15 16 16 16 16 17 16 16 16 17 18 17 17 16 16 16 16 16 16 15 15 15 15
16 14 13 15 13 12 12 11 11 14 11 11 12 12 12 12 12 13 13 14 14 15 16 16 16 16 17 17 17 17 17 17 17 17 16 16 16 17 16 16 16 15 15 14
15 16 19 13 13 10 11 10 9 11 11 11 11 11 10 10 11 12 13 13 14 15 16 16 16 16 16 17 17 17 17 17 17 17 17 17 17 17 17 16 16 15 15 15
16 16 14 13 14 12 12 11 8 9 10 10 10 11 12 10 10 11 12 13 14 14 15 16 16 16 16 17 17 17 18 18 18 18 18 18 18 18 17 16 16 16 16 15
16 17 19 12 12 10 9 13 10 8 10 12 11 13 11 11 11 12 12 13 15 15 16 16 16 16 17 17 18 18 18 18 18 18 18 18 18 17 17 16 17 16 17 16
15 16 14 12 12 11 14 12 12 10 9 11 10 9 9 11 12 12 13 14 15 16 16 17 16 16 17 17 18 19 19 19 19 18 18 18 18 18 18 18 18 18 18 17
17 16 17 13 13 12 11 12 12 11 10 10 11 12 12 12 14 15 16 16 16 16 17 17 16 16 17 18 19 19 19 19 19 19 19 18 19 19 19 19 19 19 18 18
13 12 13 13 11 11 11 12 12 11 10 11 12 12 12 13 14 15 15 16 16 16 17 18 18 17 18 19 20 20 20 21 20 20 20 20 20 20 19 19 20 19 19 19
16 13 13 12 11 11 11 11 11 10 11 11 12 12 13 14 15 15 16 17 17 17 18 19 19 19 19 20 21 23 22 21 21 21 21 21 20 20 20 20 20 20 20 20
15 14 13 12 12 11 11 12 12 12 12 11 12 13 13 15 15 16 17 18 18 18 18 19 20 21 22 22 23 22 22 22 21 21 22 22 22 21 21 20 20 20 20 19
15 12 12 13 11 11 12 12 12 12 13 13 12 13 13 15 15 16 17 18 19 19 20 21 22 22 24 25 25 24 22 22 22 22 22 22 22 22 21 21 20 19 18 19
13 13 12 13 13 12 11 12 13 12 12 13 14 13 14 15 16 18 18 19 20 20 21 22 23 24 26 27 27 26 24 24 23 24 23 23 23 23 24 22 20 19 19 18
14 13 13 13 12 13 13 14 16 17 16 15 15 16 17 18 19 19 20 20 21 22 24 25 26 26 26 27 27 28 27 28 24 24 24 24 24 24 24 25 24 22 19 19
15 16 16 16 16 16 17 17 18 17 17 19 19 18 19 20 20 20 22 24 25 26 27 28 28 26 28 29 28 27 25 24 24 24 24 26 25 25 24 24 24 24 23 21
19 22 22 20 19 19 18 20 16 18 19 20 20 21 20 20 22 24 26 27 25 25 27 29 28 26 29 29 28 27 27 28 27 25 25 26 26 26 25 25 25 24 24 23
20 20 23 21 20 21 19 16 15 16 20 21 20 23 24 25 26 27 27 28 27 26 26 27 26 29 30 30 28 25 25 25 28 26 26 26 26 26 26 26 26 25 24 23
21 21 16 16 18 19 20 20 20 19 19 19 22 24 26 26 21 24 26 29 30 31 29 27 28 29 30 30 29 26 26 26 26 27 27 27 27 26 26 26 25 26 25 23
25 23 23 20 18 18 19 20 20 21 22 22 24 24 23 23 23 24 27 29 29 26 23 27 26 29 28 29 29 27 26 26 27 27 27 28 27 26 26 26 26 25 25 24
24 25 25 24 25 21 20 23 21 22 23 23 24 25 24 25 27 28 29 26 24 23 26 27 26 26 27 28 24 26 26 27 27 27 27 27 26 26 26 27 26 26 25 24
21 22 25 25 24 26 25 22 22 22 24 24 23 23 23 24 28 29 29 25 23 27 28 29 27 26 27 27 29 27 27 27 27 27 27 27 27 27 26 26 25 25 24 23
24 22 23 25 25 23 24 24 22 23 24 26 27 26 27 26 28 29 26 23 25 28 28 27 27 27 27 28 27 27 27 27 27 27 27 27 27 27 27 26 25 25 24 23
23 23 23 25 23 20 25 26 25 23 24 25 26 26 24 21 24 25 23 23 26 28 27 26 27 27 27 27 26 26 27 28 27 27 27 27 27 27 27 26 25 25 25 24
23 23 22 23 25 24 22 21 25 24 24 24 24 24 23 24 25 25 26 27 26 25 26 26 25 23 25 26 26 27 27 26 26 27 27 27 27 27 27 26 26 24 24 24
22 22 23 24 22 20 22 21 24 26 26 25 24 24 24 24 22 24 26 26 26 25 25 25 24 23 25 26 27 26 26 26 26 27 27 26 27 26 26 26 25 25 25 24
21 20 20 21 20 20 19 22 21 22 24 24 24 24 25 26 26 26 26 26 25 26 25 26 25 26 26 26 26 26 26 26 26 26 26 26 26 26 26 26 25 25 25 24
22 23 22 22 22 21 21 21 21 21 23 23 22 25 26 27 26 26 27 26 26 26 26 26 26 26 26 26 26 26 26 26 26 26 25 25 26 26 26 25 25 25 25 25

GFSNGP_con_lsi_216.txt.gz
Lid_Strength_Index
12 12 11 12 13 13 14 13 16 14 13 11 11 10 9 9 9 11 11 12 13 14 15 16 17 17 17 17 17 17 18 18 18 17 17 17 17 17 17 17 16 16 16 16
15 12 12 14 12 12 12 12 12 12 13 10 10 10 9 10 10 11 11 12 12 14 15 16 16 16 16 17 17 17 18 18 18 18 18 18 17 17 17 17 17 16 16 16
18 14 15 19 13 12 12 11 12 14 11 11 11 9 9 9 9 10 10 11 13 14 15 15 16 16 17 17 17 17 18 18 18 18 18 18 18 17 17 17 17 17 17 16
17 17 21 13 12 11 11 10 10 10 11 11 10 10 8 8 9 9 9 11 12 14 15 15 16 16 17 17 17 18 18 18 18 18 18 18 18 18 18 18 18 17 17 17
17 17 15 14 13 12 12 12 9 9 9 11 11 11 11 8 8 8 9 11 13 14 15 16 16 17 17 17 17 18 18 18 18 18 18 18 18 18 18 18 18 17 17 17
17 20 23 14 13 11 10 16 12 11 9 11 11 14 13 9 9 10 11 12 13 15 15 16 16 16 17 18 18 19 18 18 18 18 17 18 18 18 18 17 17 17 17 17
17 17 16 14 12 11 18 15 12 12 11 10 11 11 10 9 11 11 12 13 14 15 16 16 16 16 17 18 19 19 18 18 18 18 18 18 18 18 18 18 18 18 18 17
17 17 19 12 13 13 12 13 13 12 11 10 11 10 10 11 12 13 14 15 16 16 16 16 17 17 18 18 19 19 18 18 19 19 18 18 19 18 18 19 19 19 19 19
14 14 12 11 11 11 11 11 13 12 11 11 11 12 12 13 14 14 15 16 16 17 18 18 18 17 18 19 19 20 21 22 21 20 18 18 20 19 21 20 21 20 20 21
15 12 12 12 13 12 12 13 12 12 12 11 12 12 13 14 14 15 16 17 18 18 19 20 20 18 18 19 20 23 23 22 21 21 21 21 20 19 21 22 22 21 21 22
17 14 14 13 13 12 13 13 13 13 12 11 12 13 13 15 16 17 17 18 18 19 19 19 20 21 22 21 22 22 22 21 21 21 23 22 21 22 21 21 21 25 26 24
18 14 13 14 15 13 12 13 13 13 13 13 12 14 15 16 17 17 18 18 19 20 20 21 22 22 23 24 24 24 22 22 23 23 24 23 24 24 19 18 18 18 18 19
15 15 14 14 14 14 14 15 14 14 14 14 14 15 16 17 18 18 19 20 20 20 21 22 23 24 26 27 27 28 27 25 25 24 25 25 25 26 28 24 19 18 18 18
15 15 16 14 14 14 14 15 17 18 18 17 17 18 20 20 21 20 20 20 22 22 23 24 25 26 27 28 29 30 30 26 27 26 26 27 26 27 27 28 27 26 21 20
17 17 17 18 19 19 19 19 20 20 21 20 22 20 19 20 20 20 24 23 24 26 28 27 27 28 28 29 29 31 29 28 28 27 26 26 28 28 28 28 28 26 26 23
24 25 25 23 23 23 22 22 19 20 21 22 20 20 22 23 24 26 27 25 23 24 25 27 27 29 29 29 29 30 30 27 27 27 29 29 28 29 30 30 30 30 28 28
23 23 25 24 24 24 22 23 22 22 23 23 23 24 23 25 28 28 27 29 29 28 26 26 26 27 28 28 28 27 27 27 28 30 30 31 31 32 31 32 31 31 29 27
24 24 23 21 21 23 24 25 23 23 22 24 23 24 25 24 21 23 26 30 29 28 28 26 25 27 28 29 28 29 27 27 29 30 30 31 32 31 32 32 31 30 27 26
26 25 25 24 24 23 24 23 24 24 25 22 23 22 23 25 27 27 26 27 28 27 25 26 23 28 30 30 28 27 27 27 27 28 28 29 30 31 30 29 28 27 26 27
27 27 27 27 28 26 25 26 24 25 26 23 25 26 25 28 27 27 27 25 24 25 28 30 27 29 28 27 24 27 27 26 26 26 29 29 30 30 28 27 27 27 27 26
27 28 28 27 27 29 27 26 23 23 25 26 24 25 26 26 25 25 28 27 25 26 30 28 28 26 26 26 24 25 25 25 27 28 29 29 29 28 27 27 27 27 25 25
26 26 27 28 27 26 28 27 27 26 26 27 28 26 24 25 26 26 26 25 28 27 29 28 27 24 24 24 25 25 26 28 28 28 29 28 27 27 27 27 27 25 25 25
26 26 27 27 26 27 28 27 27 27 26 26 25 25 24 23 24 27 25 25 26 27 27 26 24 23 23 25 26 27 27 27 27 27 27 26 26 26 27 26 26 25 25 25
26 25 26 27 27 25 22 25 26 25 24 24 25 25 24 25 25 25 25 25 24 24 27 25 24 22 27 30 27 26 26 26 26 26 26 25 27 26 26 25 25 24 24 24
25 25 26 24 23 22 23 24 25 26 25 25 25 25 25 25 24 26 26 26 23 26 27 24 22 23 29 27 26 26 26 27 26 27 28 28 27 26 25 24 24 24 24 24
24 24 24 24 23 23 23 24 22 23 23 24 25 25 25 26 26 26 26 26 27 27 28 29 29 27 26 27 27 27 27 27 26 26 27 26 25 25 24 24 24 24 25 25
25 22 24 24 24 23 22 21 21 22 23 24 24 25 26 26 26 26 27 28 28 29 29 30 28 27 27 28 29 28 28 29 27 29 30 28 27 26 25 25 26 26 25 26

GFSNGP_con_lsi_219.txt.gz
Lid_Strength_Index
13 13 11 13 13 13 15 13 16 14 13 12 12 11 10 10 10 10 10 11 12 13 14 16 17 17 17 17 18 17 18 18 18 18 18 18 18 18 17 17 17 17 17 16
14 13 12 14 12 12 12 12 13 12 13 9 10 10 9 9 9 10 11 10 11 14 15 16 17 17 17 18 18 17 18 18 18 18 18 18 18 18 18 17 17 17 17 16
16 15 15 19 14 12 12 11 11 15 11 10 11 11 10 10 10 10 10 10 12 14 15 15 16 16 17 17 17 18 18 18 18 18 18 18 18 18 18 18 17 17 17 17
16 21 21 14 13 11 11 11 10 10 10 10 11 10 9 8 9 9 9 10 12 14 15 15 16 16 17 17 18 18 18 18 18 18 18 18 18 19 18 18 17 17 17 17
19 18 17 15 14 13 13 13 10 10 9 11 10 10 11 8 8 8 8 9 12 13 14 15 16 16 17 17 18 18 18 18 18 18 18 18 19 19 18 18 18 18 16 17
19 21 24 15 13 11 11 16 13 12 10 12 11 14 13 9 8 8 9 10 14 15 15 16 17 17 17 18 18 18 18 18 18 18 18 19 19 18 17 17 17 16 17 17
18 23 19 13 13 11 18 15 13 13 12 11 12 11 10 9 9 9 12 14 14 14 15 15 17 16 17 17 18 18 18 18 19 19 18 18 18 18 18 18 18 18 18 18
21 18 20 13 13 14 12 13 13 13 13 12 11 12 11 11 13 14 15 15 15 16 15 16 17 16 17 18 18 19 19 19 19 20 18 18 19 18 18 19 20 20 20 19
16 15 12 12 12 11 12 12 13 13 13 12 12 12 13 14 15 15 15 16 16 16 18 17 17 17 17 18 19 20 20 21 21 20 18 18 20 20 21 20 21 21 20 21
14 13 13 12 12 12 12 12 12 12 13 12 12 13 14 15 15 15 16 17 18 18 19 19 19 17 17 19 19 22 22 21 21 21 21 21 20 20 21 23 23 21 22 23
16 14 13 12 12 12 12 12 12 13 13 12 12 13 14 15 16 17 17 18 18 18 18 20 20 20 21 21 22 22 22 21 21 21 23 22 21 22 21 21 21 25 25 24
18 14 13 14 15 14 13 13 13 13 14 13 12 14 15 16 17 17 18 19 20 20 20 21 22 23 24 24 23 23 22 22 23 23 24 23 24 24 20 18 17 17 17 19
16 16 15 15 15 15 15 15 15 15 14 13 14 15 16 17 19 19 20 20 20 19 21 22 23 24 27 27 26 26 25 24 25 24 25 25 25 25 26 24 20 19 18 18
15 15 15 15 15 14 15 16 17 19 19 18 18 20 20 20 21 19 19 20 22 22 23 23 24 25 27 29 29 29 28 25 25 25 26 26 26 25 26 27 27 26 23 21
18 19 18 19 19 20 21 20 21 20 21 20 22 19 19 19 20 20 24 24 24 25 27 26 26 25 28 28 27 28 27 27 28 27 25 25 26 26 27 28 28 28 28 24
27 27 25 23 24 24 24 23 21 22 23 23 23 23 24 24 24 25 26 25 23 23 24 25 26 27 28 28 27 28 28 26 25 26 25 26 26 26 26 27 28 28 28 28
23 23 24 24 25 25 23 25 24 23 24 24 23 26 25 26 29 29 29 30 30 27 26 25 24 26 27 26 27 27 28 27 25 27 26 27 27 27 28 30 30 30 28 26
25 26 27 24 24 25 25 27 26 25 23 24 26 26 25 23 22 26 28 30 29 28 29 26 26 26 27 28 27 27 25 26 27 26 26 26 27 27 29 29 29 29 27 26
29 26 28 27 27 26 26 26 26 26 24 23 24 22 24 26 27 28 28 28 28 27 24 26 23 26 27 28 27 26 26 26 26 26 26 26 27 29 30 30 29 28 27 27
29 30 30 29 30 28 26 28 27 26 26 25 26 26 27 28 28 28 27 25 24 24 29 29 25 26 27 27 24 26 25 25 24 25 26 28 28 28 28 27 27 27 27 26
28 30 30 29 29 31 30 30 27 27 29 26 24 25 25 28 29 26 27 26 24 26 25 25 25 26 26 26 25 25 25 25 25 26 27 27 27 27 27 26 27 27 26 25
30 28 30 30 28 28 29 29 27 26 27 28 29 28 27 27 28 27 27 24 24 25 26 27 26 25 25 24 26 25 26 26 26 26 26 27 28 27 27 28 27 26 25 25
29 29 29 28 27 27 30 28 29 27 28 29 27 26 25 25 25 24 24 26 27 25 26 26 25 23 24 28 28 28 28 26 27 27 27 28 28 28 29 28 27 26 25 25
28 28 27 29 29 26 23 27 28 28 27 25 25 27 25 24 25 26 26 24 24 25 26 25 22 23 29 31 31 28 27 26 27 28 27 26 29 29 29 28 26 25 25 25
26 28 28 26 24 25 25 27 25 25 25 26 27 28 27 26 25 27 26 26 24 27 27 24 22 25 32 31 28 29 30 30 30 31 32 32 32 32 30 28 27 26 26 26
26 25 26 26 24 25 26 26 24 27 24 25 27 28 27 27 26 27 27 27 28 28 30 29 28 30 30 31 32 32 31 32 31 32 32 32 31 30 30 29 28 27 26 26
27 26 27 26 27 26 24 24 23 25 26 25 27 28 27 27 27 28 28 29 30 30 31 31 30 31 33 34 34 33 33 33 32 33 35 32 31 30 29 28 28 27 27 26

GFSNGP_con_lsi_222.txt.gz
Lid_Strength_Index
13 12 12 13 13 13 15 13 16 14 14 13 12 12 12 12 12 12 12 11 12 13 14 15 16 16 16 17 17 17 18 18 18 18 18 18 18 18 17 18 18 17 17 17
14 13 12 13 12 12 12 13 13 13 13 11 12 11 12 11 11 11 11 10 10 12 14 15 15 16 17 18 18 18 18 18 18 18 18 18 18 18 18 18 18 17 17 17
21 15 15 19 14 13 12 12 12 15 11 11 12 10 10 10 10 10 10 10 10 12 14 15 16 16 17 18 17 18 18 18 18 18 18 18 18 18 18 18 18 18 18 18
22 21 20 15 13 12 12 11 10 10 10 10 10 10 9 9 9 10 10 10 10 13 14 15 16 16 17 17 17 18 18 18 18 18 18 18 18 18 19 18 19 19 18 17
20 17 17 15 14 13 13 13 11 11 10 12 11 10 11 9 8 8 9 9 10 12 14 15 16 17 17 17 17 18 18 18 17 17 18 18 18 19 19 19 18 18 17 17
16 19 23 15 13 12 11 17 14 13 10 11 11 12 12 9 8 9 8 8 11 13 14 15 17 16 17 18 18 18 18 18 17 17 18 19 19 19 18 18 17 16 16 17
16 22 19 14 13 11 18 16 14 14 13 11 12 11 10 10 9 9 10 13 14 14 14 15 15 16 17 17 18 17 17 17 18 18 19 19 18 18 18 18 17 18 18 18
21 23 21 13 12 14 12 13 14 14 13 12 12 12 12 12 12 13 15 15 15 15 15 15 15 15 17 17 18 18 18 19 19 20 18 18 19 18 18 18 19 20 20 20
15 15 12 12 12 12 12 13 13 13 13 13 13 13 13 14 15 16 16 16 16 16 16 16 16 15 17 18 18 19 19 20 21 21 19 18 20 19 21 20 21 21 21 22
14 12 12 12 12 12 12 12 13 13 13 13 13 13 14 15 16 16 17 17 18 17 17 17 17 18 17 18 19 19 20 22 22 22 21 21 19 19 21 23 23 21 22 22
16 13 13 12 13 12 13 13 13 13 13 13 13 13 14 15 16 17 17 18 18 16 16 17 19 19 19 19 20 21 22 22 21 21 22 22 21 22 21 20 20 24 25 24
16 14 13 13 14 13 13 13 13 13 13 13 12 13 14 16 16 17 18 19 19 20 20 21 20 21 22 21 22 22 22 22 22 23 24 23 23 23 19 18 17 17 16 18
16 16 15 15 15 16 15 16 16 15 15 14 15 14 15 17 18 19 20 20 20 20 21 22 22 23 28 27 24 24 24 24 24 23 23 23 23 23 24 22 19 19 18 18
16 15 15 15 16 15 15 17 19 20 20 19 19 20 20 21 22 21 21 22 21 21 23 23 25 25 26 28 28 28 28 25 24 24 23 23 23 24 24 24 25 24 22 20
19 21 19 19 20 21 22 21 20 20 22 21 23 21 20 21 21 22 25 24 24 26 28 27 27 25 29 29 27 29 28 26 25 24 24 23 24 24 24 25 25 25 26 24
26 27 26 23 25 26 26 24 22 22 24 24 23 23 24 24 24 27 29 26 23 23 26 26 25 27 28 28 28 30 28 25 24 24 25 25 25 25 25 26 27 27 27 27
22 22 24 24 26 26 25 27 25 24 25 24 24 27 26 26 27 29 30 31 30 27 27 25 25 27 28 28 27 27 26 25 25 26 27 27 25 25 26 28 28 28 27 26
27 28 28 25 25 26 26 29 29 27 24 25 27 26 25 25 24 26 28 32 30 28 29 28 29 30 28 27 26 25 26 26 26 27 27 27 26 26 28 29 29 29 27 26
31 27 29 29 30 30 28 28 27 27 28 24 24 25 26 27 26 27 28 29 29 29 26 30 23 26 27 26 26 26 26 26 27 27 26 25 27 27 29 29 29 28 27 26
30 31 32 30 32 31 28 31 30 26 29 24 23 24 26 27 29 29 30 30 29 26 29 28 23 24 25 26 23 26 25 25 26 26 27 27 28 28 28 27 27 27 27 27
30 31 30 29 29 31 31 30 24 24 28 26 24 25 27 31 31 29 27 25 25 27 25 24 24 26 26 25 26 27 27 29 28 28 28 28 29 29 28 28 28 29 30 30
30 29 29 29 28 29 31 32 27 28 28 27 28 27 25 29 28 27 26 25 26 24 26 26 26 25 26 24 27 30 31 31 30 29 30 29 30 31 32 33 33 32 31 29
29 29 29 28 27 29 31 29 30 28 27 29 26 27 25 26 27 25 24 27 27 25 26 26 24 24 25 29 32 32 32 31 31 31 31 32 33 34 35 33 31 31 29 28
29 30 31 33 32 28 24 30 28 27 26 26 25 27 25 25 26 27 26 25 24 25 25 24 22 23 29 32 33 32 32 32 32 34 34 31 35 35 36 32 31 29 30 28
29 31 31 27 24 26 27 29 26 26 26 26 26 27 27 26 25 28 27 25 24 26 25 23 23 27 32 33 32 33 33 35 35 36 35 36 36 35 33 32 31 29 27 27
28 26 28 28 25 25 25 27 25 28 26 27 28 28 27 26 26 26 27 27 28 28 28 29 31 31 32 32 34 34 34 34 33 34 35 36 36 34 32 31 30 30 29 28
29 28 26 25 28 27 26 24 23 25 26 27 28 29 27 27 27 27 28 29 29 30 31 31 31 32 35 35 35 35 35 35 33 35 37 37 36 34 32 31 31 30 29 28